Total_Precipitation_Accumulation
0.05 0.05 0.04 0.04 0.03 0.04 0.04 0.05 0.04 0.03 0.03 0.03 0.03 0.02 0.03 0.04 0.04 0.03 0.03 0.03 0.02 0.02 0.02 0.01 0.02 0.02 0.01 0.01 0.00 0.00 0.00 0.01 0.00 0.00 0.00 0.00 0.00 0.00 0.00 0.00 0.00 0.00 0.00 0.00 0.00 0.00 0.00 0.00 0.00 0.00 0.00 0.00 0.00 0.00 0.00 0.00 0.00 0.00 0.00 0.00 0.00 0.00 0.00 0.00 0.00 0.00 0.00 0.00 0.00 0.00 0.00 0.00 0.00 0.00 0.00 0.00 0.00 0.00 0.00 0.02 0.03 0.02 0.04 0.18 0.11 0.14 0.06 0.10
0.04 0.04 0.04 0.04 0.04 0.04 0.04 0.04 0.04 0.04 0.03 0.03 0.03 0.03 0.03 0.02 0.04 0.03 0.04 0.03 0.03 0.02 0.01 0.02 0.01 0.01 0.01 0.00 0.00 0.00 0.00 0.00 0.00 0.00 0.00 0.00 0.00 0.00 0.00 0.00 0.00 0.00 0.00 0.00 0.00 0.00 0.00 0.00 0.00 0.00 0.00 0.00 0.00 0.00 0.00 0.00 0.00 0.00 0.00 0.00 0.00 0.00 0.00 0.00 0.00 0.00 0.00 0.00 0.00 0.00 0.00 0.00 0.00 0.00 0.00 0.04 0.01 0.00 0.00 0.02 0.04 0.11 0.10 0.14 0.16 0.12 0.12 0.10
0.04 0.04 0.04 0.03 0.03 0.03 0.04 0.03 0.04 0.03 0.03 0.02 0.03 0.04 0.03 0.02 0.02 0.03 0.03 0.03 0.03 0.02 0.02 0.02 0.01 0.01 0.00 0.00 0.00 0.00 0.00 0.00 0.00 0.00 0.00 0.00 0.00 0.00 0.00 0.00 0.00 0.00 0.00 0.00 0.00 0.00 0.00 0.00 0.00 0.00 0.00 0.00 0.00 0.00 0.00 0.00 0.00 0.00 0.00 0.00 0.00 0.00 0.00 0.00 0.00 0.00 0.00 0.00 0.00 0.00 0.00 0.00 0.00 0.00 0.00 0.00 0.00 0.00 0.01 0.03 0.08 0.09 0.28 0.19 0.23 0.20 0.16 0.24
0.05 0.04 0.03 0.04 0.02 0.03 0.03 0.03 0.03 0.04 0.03 0.03 0.02 0.03 0.03 0.03 0.03 0.03 0.04 0.03 0.01 0.02 0.02 0.02 0.01 0.01 0.00 0.00 0.00 0.00 0.00 0.00 0.00 0.00 0.00 0.00 0.00 0.00 0.00 0.00 0.00 0.00 0.00 0.00 0.00 0.00 0.00 0.00 0.00 0.00 0.00 0.00 0.00 0.00 0.00 0.00 0.00 0.00 0.00 0.00 0.00 0.00 0.00 0.00 0.00 0.00 0.00 0.00 0.00 0.00 0.00 0.00 0.00 0.00 0.00 0.00 0.01 0.02 0.07 0.05 0.03 0.12 0.28 0.27 0.21 0.15 0.21 0.28
0.04 0.03 0.03 0.02 0.02 0.04 0.04 0.03 0.03 0.04 0.04 0.04 0.03 0.02 0.03 0.03 0.03 0.04 0.03 0.02 0.02 0.01 0.02 0.01 0.01 0.00 0.00 0.00 0.00 0.00 0.00 0.00 0.00 0.00 0.00 0.00 0.00 0.00 0.00 0.00 0.00 0.00 0.00 0.00 0.00 0.00 0.00 0.00 0.00 0.00 0.00 0.00 0.00 0.00 0.00 0.00 0.00 0.00 0.00 0.00 0.00 0.00 0.00 0.00 0.00 0.00 0.00 0.00 0.00 0.00 0.00 0.00 0.00 0.00 0.00 0.00 0.00 0.07 0.06 0.03 0.05 0.09 0.35 0.20 0.23 0.11 0.24 0.35
0.03 0.03 0.02 0.02 0.03 0.03 0.04 0.03 0.03 0.04 0.04 0.03 0.05 0.04 0.04 0.04 0.03 0.04 0.03 0.03 0.02 0.01 0.01 0.01 0.01 0.00 0.00 0.00 0.00 0.00 0.00 0.00 0.00 0.00 0.00 0.00 0.00 0.00 0.00 0.00 0.00 0.00 0.00 0.00 0.00 0.00 0.00 0.00 0.00 0.00 0.00 0.00 0.00 0.00 0.00 0.00 0.00 0.00 0.00 0.00 0.00 0.00 0.00 0.00 0.00 0.00 0.00 0.00 0.00 0.00 0.00 0.00 0.00 0.00 0.00 0.00 0.00 0.01 0.01 0.01 0.04 0.05 0.09 0.14 0.17 0.17 0.20 0.24
0.02 0.02 0.02 0.03 0.03 0.03 0.02 0.03 0.02 0.02 0.03 0.04 0.04 0.04 0.03 0.05 0.04 0.02 0.02 0.02 0.02 0.02 0.01 0.01 0.00 0.00 0.00 0.00 0.00 0.00 0.00 0.00 0.00 0.00 0.00 0.00 0.00 0.00 0.00 0.00 0.00 0.00 0.00 0.00 0.00 0.00 0.00 0.00 0.00 0.00 0.00 0.00 0.00 0.00 0.00 0.00 0.00 0.00 0.00 0.00 0.00 0.00 0.00 0.00 0.00 0.00 0.00 0.00 0.00 0.00 0.00 0.00 0.00 0.00 0.00 0.00 0.00 0.00 0.00 0.01 0.02 0.12 0.10 0.10 0.14 0.16 0.30 0.24
0.03 0.02 0.03 0.02 0.02 0.02 0.02 0.02 0.03 0.03 0.03 0.03 0.04 0.03 0.04 0.04 0.06 0.03 0.02 0.02 0.02 0.01 0.02 0.01 0.00 0.00 0.00 0.00 0.00 0.00 0.00 0.00 0.00 0.00 0.00 0.00 0.00 0.00 0.00 0.00 0.00 0.00 0.00 0.00 0.00 0.00 0.00 0.00 0.00 0.00 0.00 0.00 0.00 0.00 0.00 0.00 0.00 0.00 0.00 0.00 0.00 0.00 0.00 0.00 0.00 0.00 0.00 0.00 0.00 0.00 0.00 0.00 0.00 0.00 0.00 0.00 0.00 0.00 0.00 0.01 0.02 0.05 0.12 0.20 0.12 0.26 0.46 0.45
0.02 0.02 0.02 0.02 0.02 0.02 0.02 0.03 0.03 0.04 0.04 0.04 0.05 0.04 0.05 0.04 0.04 0.03 0.02 0.02 0.01 0.02 0.01 0.02 0.00 0.00 0.00 0.00 0.00 0.00 0.00 0.00 0.00 0.00 0.00 0.00 0.00 0.00 0.00 0.00 0.00 0.00 0.00 0.00 0.00 0.00 0.00 0.00 0.00 0.00 0.00 0.00 0.00 0.00 0.00 0.00 0.00 0.00 0.00 0.00 0.00 0.00 0.00 0.00 0.00 0.00 0.00 0.00 0.00 0.00 0.00 0.00 0.00 0.00 0.00 0.00 0.00 0.00 0.01 0.00 0.05 0.07 0.11 0.14 0.15 0.16 0.31 0.59
0.02 0.02 0.02 0.02 0.01 0.01 0.02 0.03 0.03 0.03 0.04 0.04 0.04 0.04 0.04 0.03 0.03 0.03 0.02 0.02 0.01 0.02 0.02 0.01 0.00 0.00 0.00 0.00 0.00 0.00 0.00 0.00 0.00 0.00 0.00 0.00 0.00 0.00 0.00 0.00 0.00 0.00 0.00 0.00 0.00 0.00 0.00 0.00 0.00 0.00 0.00 0.00 0.00 0.00 0.00 0.00 0.00 0.00 0.00 0.00 0.00 0.00 0.00 0.00 0.00 0.00 0.00 0.00 0.00 0.00 0.00 0.00 0.00 0.00 0.00 0.00 0.01 0.00 0.00 0.02 0.03 0.05 0.05 0.19 0.15 0.24 0.18 0.31
0.02 0.02 0.01 0.01 0.02 0.02 0.03 0.03 0.03 0.03 0.03 0.02 0.03 0.03 0.02 0.03 0.03 0.02 0.03 0.02 0.02 0.01 0.02 0.01 0.00 0.00 0.00 0.00 0.00 0.00 0.00 0.00 0.00 0.00 0.00 0.00 0.00 0.00 0.00 0.00 0.00 0.00 0.00 0.00 0.00 0.00 0.00 0.00 0.00 0.00 0.00 0.00 0.00 0.00 0.00 0.00 0.00 0.00 0.00 0.00 0.00 0.00 0.00 0.00 0.00 0.00 0.00 0.00 0.00 0.00 0.00 0.00 0.00 0.00 0.00 0.00 0.03 0.02 0.00 0.01 0.03 0.07 0.18 0.25 0.15 0.25 0.37 0.38
0.02 0.02 0.01 0.01 0.02 0.02 0.01 0.02 0.02 0.02 0.01 0.03 0.02 0.02 0.02 0.02 0.02 0.02 0.02 0.03 0.02 0.01 0.00 0.01 0.01 0.02 0.01 0.00 0.00 0.00 0.00 0.00 0.00 0.00 0.00 0.00 0.00 0.00 0.00 0.00 0.00 0.00 0.00 0.00 0.00 0.00 0.00 0.00 0.00 0.00 0.00 0.00 0.00 0.00 0.00 0.00 0.00 0.00 0.00 0.00 0.00 0.00 0.00 0.00 0.00 0.00 0.00 0.00 0.00 0.00 0.00 0.00 0.00 0.00 0.00 0.00 0.00 0.05 0.00 0.01 0.02 0.14 0.15 0.34 0.14 0.15 0.24 0.28
0.02 0.02 0.02 0.01 0.01 0.03 0.01 0.02 0.02 0.02 0.01 0.01 0.02 0.02 0.01 0.02 0.02 0.03 0.03 0.03 0.01 0.01 0.01 0.01 0.00 0.00 0.02 0.01 0.00 0.00 0.00 0.00 0.00 0.00 0.00 0.00 0.00 0.00 0.00 0.00 0.00 0.00 0.00 0.00 0.00 0.00 0.00 0.00 0.00 0.00 0.00 0.00 0.00 0.00 0.00 0.00 0.00 0.00 0.00 0.00 0.00 0.00 0.00 0.00 0.00 0.00 0.00 0.00 0.00 0.00 0.00 0.00 0.00 0.00 0.00 0.00 0.00 0.02 0.00 0.01 0.03 0.07 0.13 0.18 0.17 0.10 0.22 0.32
0.03 0.02 0.03 0.02 0.02 0.02 0.03 0.02 0.01 0.02 0.01 0.01 0.01 0.02 0.01 0.01 0.03 0.01 0.02 0.01 0.01 0.03 0.02 0.01 0.01 0.03 0.01 0.00 0.00 0.00 0.00 0.00 0.00 0.00 0.00 0.00 0.00 0.00 0.00 0.00 0.00 0.00 0.00 0.00 0.00 0.00 0.00 0.00 0.00 0.00 0.00 0.00 0.00 0.00 0.00 0.00 0.00 0.00 0.00 0.00 0.00 0.00 0.00 0.00 0.00 0.00 0.00 0.00 0.00 0.00 0.00 0.00 0.00 0.00 0.00 0.00 0.00 0.00 0.00 0.02 0.03 0.12 0.11 0.14 0.15 0.12 0.18 0.43
0.03 0.04 0.03 0.03 0.02 0.01 0.02 0.01 0.02 0.01 0.02 0.01 0.02 0.01 0.01 0.01 0.01 0.01 0.01 0.01 0.02 0.01 0.02 0.05 0.03 0.01 0.02 0.00 0.00 0.00 0.00 0.00 0.00 0.00 0.00 0.00 0.00 0.00 0.00 0.00 0.00 0.00 0.00 0.00 0.00 0.00 0.00 0.00 0.00 0.00 0.00 0.00 0.00 0.00 0.00 0.00 0.00 0.00 0.00 0.00 0.00 0.00 0.00 0.00 0.00 0.00 0.00 0.00 0.00 0.00 0.00 0.00 0.00 0.00 0.00 0.00 0.00 0.00 0.00 0.02 0.07 0.17 0.11 0.14 0.08 0.09 0.17 0.28
0.07 0.04 0.03 0.02 0.02 0.02 0.01 0.02 0.01 0.01 0.01 0.02 0.01 0.01 0.01 0.01 0.00 0.01 0.01 0.01 0.00 0.03 0.01 0.01 0.00 0.00 0.00 0.00 0.00 0.00 0.00 0.00 0.00 0.00 0.00 0.00 0.00 0.00 0.00 0.00 0.00 0.00 0.00 0.00 0.00 0.00 0.00 0.00 0.00 0.00 0.00 0.00 0.00 0.00 0.00 0.00 0.00 0.00 0.00 0.00 0.00 0.00 0.00 0.00 0.00 0.00 0.00 0.00 0.00 0.00 0.00 0.00 0.00 0.00 0.00 0.00 0.00 0.00 0.00 0.02 0.04 0.09 0.18 0.14 0.11 0.10 0.18 0.16
0.06 0.04 0.03 0.01 0.02 0.02 0.01 0.01 0.01 0.01 0.02 0.01 0.01 0.00 0.01 0.00 0.00 0.00 0.01 0.02 0.02 0.01 0.03 0.00 0.00 0.01 0.00 0.00 0.00 0.00 0.00 0.00 0.00 0.00 0.00 0.00 0.00 0.00 0.00 0.00 0.00 0.00 0.00 0.00 0.00 0.00 0.00 0.00 0.00 0.00 0.00 0.00 0.00 0.00 0.00 0.00 0.00 0.00 0.00 0.00 0.00 0.00 0.00 0.00 0.00 0.00 0.00 0.00 0.00 0.00 0.00 0.00 0.00 0.00 0.00 0.01 0.00 0.00 0.00 0.01 0.04 0.08 0.16 0.27 0.17 0.10 0.13 0.14
0.06 0.03 0.03 0.04 0.02 0.02 0.01 0.01 0.02 0.00 0.01 0.00 0.01 0.00 0.01 0.00 0.00 0.01 0.01 0.01 0.01 0.00 0.01 0.01 0.00 0.00 0.00 0.00 0.00 0.00 0.00 0.00 0.00 0.00 0.00 0.00 0.00 0.00 0.00 0.00 0.00 0.00 0.00 0.00 0.00 0.00 0.00 0.00 0.00 0.00 0.00 0.00 0.00 0.00 0.00 0.00 0.00 0.00 0.00 0.00 0.00 0.00 0.00 0.00 0.00 0.00 0.00 0.00 0.00 0.00 0.00 0.00 0.00 0.00 0.00 0.01 0.01 0.00 0.00 0.00 0.02 0.05 0.15 0.27 0.15 0.10 0.10 0.16
0.06 0.03 0.03 0.03 0.02 0.02 0.01 0.02 0.00 0.02 0.00 0.00 0.01 0.01 0.00 0.01 0.01 0.00 0.00 0.02 0.00 0.00 0.00 0.00 0.00 0.00 0.02 0.00 0.00 0.00 0.00 0.00 0.00 0.00 0.00 0.00 0.00 0.00 0.00 0.00 0.00 0.00 0.00 0.00 0.00 0.00 0.00 0.00 0.00 0.00 0.00 0.00 0.00 0.00 0.00 0.00 0.00 0.00 0.00 0.00 0.00 0.00 0.00 0.00 0.00 0.00 0.00 0.00 0.00 0.00 0.00 0.00 0.00 0.00 0.00 0.01 0.01 0.00 0.01 0.01 0.04 0.04 0.13 0.17 0.06 0.20 0.18 0.15
0.06 0.03 0.02 0.02 0.02 0.01 0.02 0.01 0.01 0.01 0.01 0.01 0.00 0.00 0.01 0.00 0.02 0.00 0.00 0.01 0.00 0.00 0.00 0.00 0.00 0.00 0.00 0.00 0.00 0.00 0.00 0.00 0.00 0.00 0.00 0.00 0.00 0.00 0.00 0.00 0.00 0.00 0.00 0.00 0.00 0.00 0.00 0.00 0.00 0.00 0.00 0.00 0.00 0.00 0.00 0.00 0.00 0.00 0.00 0.00 0.00 0.00 0.00 0.00 0.00 0.00 0.00 0.00 0.00 0.00 0.00 0.00 0.00 0.00 0.00 0.00 0.01 0.01 0.02 0.02 0.02 0.04 0.04 0.06 0.06 0.08 0.12 0.21
0.05 0.04 0.03 0.02 0.01 0.01 0.01 0.01 0.01 0.00 0.02 0.04 0.01 0.00 0.00 0.00 0.03 0.09 0.02 0.00 0.00 0.00 0.00 0.00 0.00 0.00 0.00 0.00 0.00 0.00 0.00 0.00 0.00 0.00 0.00 0.00 0.00 0.00 0.00 0.00 0.00 0.00 0.00 0.00 0.00 0.00 0.00 0.00 0.00 0.00 0.00 0.00 0.00 0.00 0.00 0.00 0.00 0.00 0.00 0.00 0.00 0.00 0.00 0.00 0.00 0.00 0.00 0.00 0.00 0.00 0.00 0.00 0.00 0.00 0.00 0.00 0.01 0.01 0.01 0.01 0.01 0.03 0.03 0.02 0.06 0.10 0.24 0.12
0.06 0.05 0.04 0.03 0.01 0.02 0.01 0.01 0.01 0.01 0.02 0.04 0.02 0.00 0.00 0.00 0.00 0.00 0.01 0.03 0.00 0.00 0.00 0.00 0.00 0.00 0.00 0.00 0.00 0.00 0.00 0.00 0.00 0.00 0.00 0.00 0.00 0.00 0.00 0.00 0.00 0.00 0.00 0.00 0.00 0.00 0.00 0.00 0.00 0.00 0.00 0.00 0.00 0.00 0.00 0.00 0.00 0.00 0.00 0.00 0.00 0.00 0.00 0.00 0.00 0.00 0.00 0.00 0.00 0.00 0.00 0.00 0.00 0.00 0.00 0.01 0.01 0.01 0.01 0.00 0.00 0.01 0.02 0.02 0.04 0.04 0.12 0.11
0.06 0.03 0.03 0.02 0.03 0.01 0.02 0.01 0.01 0.01 0.02 0.01 0.00 0.00 0.00 0.00 0.00 0.00 0.00 0.00 0.00 0.00 0.00 0.00 0.00 0.00 0.00 0.00 0.00 0.00 0.00 0.00 0.00 0.00 0.00 0.00 0.00 0.00 0.00 0.00 0.00 0.00 0.00 0.00 0.00 0.00 0.00 0.00 0.01 0.00 0.00 0.00 0.00 0.00 0.00 0.00 0.00 0.00 0.00 0.00 0.00 0.00 0.00 0.03 0.00 0.00 0.00 0.00 0.00 0.00 0.01 0.01 0.00 0.00 0.00 0.00 0.01 0.01 0.01 0.01 0.01 0.01 0.01 0.01 0.15 0.07 0.10 0.08
0.07 0.07 0.05 0.03 0.04 0.03 0.01 0.02 0.01 0.01 0.01 0.00 0.00 0.00 0.00 0.00 0.00 0.00 0.00 0.00 0.00 0.00 0.00 0.00 0.00 0.00 0.00 0.00 0.00 0.00 0.00 0.00 0.00 0.00 0.00 0.00 0.00 0.00 0.00 0.00 0.00 0.00 0.00 0.00 0.00 0.00 0.00 0.00 0.01 0.01 0.00 0.00 0.00 0.00 0.00 0.00 0.00 0.00 0.00 0.00 0.00 0.00 0.00 0.00 0.07 0.00 0.00 0.00 0.00 0.00 0.00 0.01 0.00 0.00 0.00 0.00 0.00 0.00 0.00 0.04 0.25 0.14 0.12 0.16 0.01 0.07 0.07 0.20
0.03 0.04 0.03 0.02 0.06 0.07 0.04 0.01 0.00 0.00 0.00 0.00 0.01 0.00 0.00 0.00 0.00 0.00 0.00 0.00 0.00 0.00 0.00 0.00 0.00 0.00 0.00 0.00 0.00 0.00 0.00 0.00 0.00 0.00 0.00 0.00 0.00 0.00 0.00 0.00 0.00 0.00 0.00 0.00 0.00 0.00 0.00 0.01 0.00 0.00 0.00 0.00 0.00 0.00 0.00 0.00 0.00 0.00 0.00 0.00 0.00 0.00 0.00 0.00 0.00 0.00 0.00 0.01 0.00 0.00 0.02 0.01 0.01 0.00 0.01 0.00 0.00 0.01 0.00 0.01 0.03 0.21 0.18 0.04 0.06 0.04 0.09 0.12
0.08 0.04 0.07 0.06 0.03 0.08 0.03 0.00 0.01 0.01 0.00 0.00 0.00 0.00 0.00 0.00 0.00 0.00 0.01 0.02 0.07 0.01 0.00 0.00 0.00 0.00 0.00 0.00 0.00 0.00 0.00 0.00 0.00 0.00 0.00 0.00 0.00 0.00 0.00 0.00 0.00 0.00 0.00 0.00 0.00 0.00 0.00 0.00 0.00 0.00 0.00 0.00 0.00 0.00 0.00 0.00 0.00 0.00 0.03 0.00 0.00 0.00 0.00 0.00 0.00 0.00 0.00 0.03 0.05 0.00 0.01 0.03 0.01 0.02 0.00 0.00 0.00 0.00 0.00 0.02 0.01 0.03 0.06 0.11 0.06 0.14 0.14 0.14
0.03 0.14 0.07 0.08 0.05 0.07 0.04 0.02 0.00 0.00 0.01 0.02 0.00 0.01 0.00 0.00 0.01 0.01 0.02 0.06 0.07 0.03 0.00 0.00 0.00 0.00 0.00 0.00 0.00 0.00 0.00 0.01 0.00 0.00 0.00 0.00 0.00 0.00 0.00 0.00 0.00 0.00 0.00 0.00 0.00 0.00 0.00 0.00 0.00 0.00 0.00 0.00 0.00 0.00 0.00 0.00 0.00 0.02 0.01 0.00 0.00 0.00 0.00 0.00 0.00 0.00 0.02 0.00 0.00 0.00 0.00 0.03 0.02 0.07 0.00 0.01 0.00 0.01 0.03 0.03 0.04 0.05 0.15 0.14 0.11 0.15 0.24 0.30
0.06 0.09 0.04 0.03 0.19 0.08 0.10 0.03 0.00 0.00 0.01 0.01 0.01 0.00 0.00 0.00 0.00 0.01 0.06 0.10 0.01 0.00 0.03 0.00 0.00 0.00 0.00 0.00 0.00 0.00 0.00 0.00 0.00 0.00 0.00 0.00 0.00 0.00 0.00 0.00 0.00 0.00 0.00 0.00 0.01 0.00 0.00 0.00 0.00 0.00 0.00 0.00 0.00 0.00 0.00 0.00 0.00 0.02 0.00 0.00 0.00 0.00 0.01 0.00 0.00 0.00 0.05 0.01 0.05 0.00 0.00 0.00 0.05 0.05 0.00 0.00 0.02 0.04 0.05 0.06 0.08 0.08 0.20 0.14 0.19 0.17 0.27 0.17
0.07 0.07 0.07 0.03 0.04 0.12 0.03 0.02 0.01 0.01 0.00 0.00 0.01 0.00 0.00 0.03 0.01 0.10 0.46 0.15 0.37 0.00 0.00 0.01 0.00 0.00 0.00 0.00 0.00 0.00 0.00 0.00 0.00 0.00 0.00 0.00 0.00 0.00 0.00 0.00 0.00 0.00 0.00 0.00 0.00 0.00 0.00 0.00 0.00 0.00 0.00 0.00 0.00 0.00 0.00 0.00 0.01 0.00 0.00 0.00 0.00 0.00 0.00 0.00 0.01 0.00 0.08 0.00 0.02 0.05 0.10 0.03 0.05 0.03 0.04 0.05 0.01 0.09 0.13 0.18 0.14 0.26 0.20 0.17 0.23 0.30 0.34 0.28
0.05 0.04 0.14 0.06 0.09 0.02 0.03 0.02 0.00 0.00 0.00 0.02 0.03 0.00 0.02 0.08 0.36 0.15 0.17 0.04 0.13 0.25 0.00 0.02 0.00 0.00 0.00 0.00 0.00 0.00 0.00 0.00 0.00 0.00 0.00 0.00 0.00 0.00 0.00 0.00 0.01 0.00 0.00 0.00 0.00 0.00 0.00 0.00 0.00 0.00 0.00 0.00 0.00 0.00 0.00 0.00 0.00 0.00 0.00 0.00 0.00 0.00 0.01 0.00 0.00 0.06 0.04 0.00 0.02 0.02 0.02 0.00 0.09 0.14 0.17 0.10 0.05 0.05 0.11 0.21 0.29 0.28 0.30 0.38 0.17 0.21 0.31 0.32
0.13 0.08 0.08 0.21 0.12 0.03 0.02 0.00 0.01 0.00 0.04 0.05 0.01 0.01 0.06 0.27 0.23 0.13 0.03 0.09 0.00 0.11 0.00 0.00 0.00 0.00 0.00 0.00 0.01 0.00 0.00 0.00 0.00 0.00 0.00 0.00 0.00 0.00 0.00 0.00 0.00 0.01 0.00 0.00 0.00 0.00 0.00 0.00 0.00 0.00 0.00 0.00 0.00 0.00 0.00 0.00 0.00 0.00 0.00 0.02 0.00 0.02 0.00 0.00 0.04 0.03 0.08 0.00 0.03 0.02 0.01 0.02 0.07 0.19 0.16 0.11 0.09 0.11 0.08 0.12 0.18 0.32 0.19 0.22 0.23 0.23 0.24 0.42
0.08 0.17 0.08 0.20 0.18 0.06 0.04 0.01 0.02 0.00 0.03 0.10 0.05 0.01 0.12 0.16 0.21 0.18 0.03 0.00 0.15 0.24 0.06 0.03 0.01 0.01 0.00 0.00 0.00 0.00 0.00 0.00 0.00 0.00 0.00 0.00 0.02 0.00 0.00 0.00 0.00 0.00 0.01 0.01 0.04 0.00 0.00 0.00 0.00 0.00 0.00 0.00 0.00 0.00 0.00 0.00 0.00 0.00 0.00 0.01 0.19 0.16 0.03 0.04 0.05 0.02 0.01 0.04 0.04 0.00 0.00 0.07 0.01 0.31 0.15 0.16 0.14 0.34 0.13 0.11 0.14 0.15 0.15 0.16 0.23 0.19 0.27 0.44
0.05 0.10 0.18 0.10 0.19 0.05 0.02 0.02 0.00 0.01 0.01 0.38 0.01 0.25 0.36 0.25 0.05 0.08 0.05 0.02 0.41 0.30 0.05 0.03 0.03 0.00 0.01 0.00 0.01 0.00 0.00 0.02 0.01 0.00 0.00 0.00 0.00 0.00 0.00 0.00 0.00 0.00 0.02 0.05 0.02 0.00 0.00 0.00 0.00 0.00 0.00 0.00 0.00 0.00 0.02 0.00 0.00 0.00 0.01 0.13 0.04 0.11 0.06 0.02 0.07 0.01 0.05 0.03 0.01 0.04 0.01 0.04 0.23 0.23 0.23 0.48 0.27 0.25 0.11 0.09 0.12 0.13 0.20 0.21 0.21 0.28 0.44 0.40
0.06 0.07 0.15 0.21 0.05 0.02 0.07 0.02 0.00 0.00 0.02 0.11 0.15 0.35 0.92 0.07 0.03 0.02 0.07 0.05 0.18 0.11 0.04 0.06 0.01 0.01 0.00 0.07 0.03 0.00 0.02 0.00 0.00 0.00 0.00 0.01 0.00 0.01 0.01 0.00 0.00 0.01 0.00 0.03 0.01 0.02 0.04 0.07 0.00 0.00 0.00 0.00 0.00 0.00 0.00 0.03 0.01 0.01 0.00 0.01 0.09 0.13 0.07 0.02 0.06 0.05 0.02 0.18 0.09 0.01 0.01 0.08 0.07 1.00 0.27 0.37 0.35 0.35 0.29 0.13 0.12 0.13 0.12 0.19 0.22 0.26 0.36 1.15
0.09 0.10 0.04 0.03 0.03 0.04 0.14 0.02 0.00 0.01 0.02 0.07 0.19 0.25 0.10 0.04 0.09 0.05 0.06 0.15 0.10 0.22 0.20 0.01 0.01 0.04 0.08 0.01 0.02 0.01 0.00 0.08 0.00 0.02 0.00 0.00 0.02 0.00 0.01 0.00 0.00 0.00 0.01 0.00 0.06 0.01 0.00 0.03 0.06 0.00 0.00 0.00 0.00 0.00 0.00 0.00 0.00 0.01 0.00 0.00 0.05 0.05 0.00 0.09 0.30 0.06 0.16 0.08 0.04 0.05 0.08 0.48 0.68 0.75 0.50 0.20 0.19 1.09 1.17 0.57 0.35 0.18 0.16 0.10 0.19 0.27 0.89 0.85
0.03 0.26 0.07 0.05 0.03 0.13 0.15 0.00 0.02 0.13 0.06 0.27 0.21 0.17 0.07 0.03 0.09 0.03 0.37 0.15 0.20 0.25 0.11 0.02 0.00 0.04 0.09 0.02 0.00 0.03 0.01 0.08 0.05 0.04 0.03 0.00 0.00 0.01 0.00 0.00 0.00 0.00 0.04 0.00 0.12 0.04 0.01 0.12 0.00 0.01 0.00 0.00 0.00 0.00 0.00 0.00 0.22 0.32 0.00 0.01 0.03 0.02 0.01 0.02 0.00 0.00 0.00 0.00 0.03 0.01 0.13 0.25 0.20 0.76 0.41 0.76 0.42 0.47 0.94 1.39 1.05 0.54 0.32 0.44 0.84 1.18 1.20 0.79
0.12 0.08 0.06 0.16 0.03 0.04 0.00 0.00 0.01 0.35 0.02 0.19 0.25 0.12 0.01 0.07 0.01 0.05 0.13 0.07 0.16 0.19 0.27 0.10 0.25 0.04 0.16 0.04 0.05 0.00 0.13 0.00 0.15 0.02 0.22 0.01 0.06 0.00 0.01 0.00 0.00 0.00 0.00 0.00 0.11 0.01 0.10 0.22 0.01 0.00 0.00 0.00 0.00 0.00 0.00 0.00 0.00 0.06 0.03 0.03 0.00 0.00 0.02 0.02 0.16 0.08 0.01 0.04 0.06 0.02 0.05 0.30 0.06 0.62 0.47 0.45 0.73 1.11 0.87 0.78 1.55 1.03 0.64 0.62 0.62 0.46 0.48 0.67
0.06 0.05 0.12 0.15 0.07 0.01 0.00 0.00 0.01 0.13 0.10 0.18 0.14 0.05 0.01 0.05 0.04 0.02 0.11 0.09 0.06 0.07 0.20 0.08 0.56 0.04 0.21 0.06 0.02 0.05 0.11 0.04 0.35 0.06 0.12 0.01 0.20 0.00 0.01 0.02 0.00 0.00 0.00 0.00 0.01 0.05 0.01 0.09 0.04 0.00 0.00 0.00 0.00 0.00 0.00 0.00 0.00 0.00 0.07 0.01 0.01 0.09 0.07 0.04 0.00 0.02 0.03 0.02 0.09 0.02 0.10 0.10 0.13 0.49 0.25 0.49 0.44 0.62 0.53 0.62 0.44 0.93 1.24 1.33 1.31 0.80 0.33 0.31
0.12 0.18 0.17 0.15 0.11 0.01 0.01 0.00 0.00 0.15 0.14 0.11 0.05 0.04 0.00 0.06 0.01 0.10 0.04 0.03 0.04 0.17 0.22 0.09 0.44 0.12 0.23 0.14 0.05 0.01 0.07 0.12 0.06 0.21 0.21 0.20 0.20 0.14 0.10 0.01 0.07 0.00 0.00 0.02 0.00 0.01 0.00 0.02 0.05 0.00 0.00 0.01 0.00 0.00 0.00 0.01 0.00 0.00 0.00 0.00 0.00 0.00 0.04 0.06 0.03 0.10 0.01 0.25 0.02 0.15 0.07 0.13 0.19 0.33 0.14 0.29 0.62 0.81 0.35 0.31 0.40 0.52 0.82 0.75 0.73 0.60 0.43 0.37
0.19 0.22 0.30 0.15 0.02 0.01 0.00 0.00 0.07 0.13 0.14 0.05 0.03 0.01 0.00 0.03 0.03 0.02 0.04 0.02 0.07 0.13 0.13 0.10 0.20 0.23 0.12 0.08 0.08 0.04 0.04 0.07 0.15 0.33 0.06 0.54 0.06 0.02 0.10 0.00 0.03 0.00 0.00 0.00 0.00 0.00 0.04 0.00 0.10 0.05 0.00 0.00 0.06 0.01 0.01 0.01 0.06 0.01 0.00 0.00 0.01 0.01 0.05 0.01 0.14 0.02 0.12 0.16 0.07 0.12 0.17 0.46 0.56 0.13 0.19 0.18 0.34 0.81 0.84 0.47 0.54 0.50 0.44 0.69 0.81 1.06 0.71 0.41
0.09 0.45 0.43 0.43 0.09 0.01 0.01 0.10 0.15 0.14 0.10 0.02 0.00 0.01 0.00 0.04 0.02 0.05 0.02 0.03 0.12 0.07 0.13 0.11 0.17 0.30 0.20 0.07 0.04 0.01 0.03 0.04 0.11 0.22 0.06 0.15 0.08 0.18 0.00 0.03 0.01 0.06 0.00 0.03 0.00 0.03 0.01 0.00 0.01 0.05 0.01 0.01 0.05 0.01 0.00 0.00 0.00 0.01 0.01 0.06 0.02 0.10 0.09 0.07 0.09 0.01 0.05 0.06 0.12 0.03 0.16 0.40 0.39 0.09 0.28 0.26 0.27 0.21 0.50 0.74 0.60 1.05 0.87 1.55 1.30 1.19 1.34 1.64
0.52 0.46 0.93 0.52 0.17 0.17 0.12 0.27 0.07 0.06 0.06 0.04 0.04 0.00 0.02 0.01 0.03 0.02 0.02 0.02 0.05 0.09 0.02 0.06 0.04 0.31 0.13 0.01 0.10 0.01 0.01 0.03 0.07 0.12 0.12 0.30 0.40 0.17 0.21 0.00 0.01 0.01 0.05 0.03 0.01 0.04 0.04 0.01 0.06 0.02 0.07 0.12 0.02 0.01 0.00 0.00 0.00 0.00 0.00 0.01 0.00 0.05 0.03 0.08 0.11 0.19 0.05 0.04 0.04 0.21 0.09 0.58 0.30 0.20 0.35 0.32 0.21 0.29 0.23 0.25 0.70 0.72 0.69 0.63 0.60 1.26 1.25 1.90
0.30 0.39 1.23 0.87 0.27 0.19 0.22 0.17 0.07 0.12 0.10 0.06 0.01 0.01 0.00 0.01 0.02 0.05 0.04 0.07 0.13 0.11 0.07 0.08 0.04 0.04 0.16 0.04 0.07 0.02 0.01 0.02 0.04 0.18 0.09 0.06 0.27 0.10 0.08 0.03 0.01 0.02 0.00 0.13 0.00 0.01 0.00 0.00 0.01 0.04 0.05 0.03 0.01 0.00 0.00 0.00 0.00 0.01 0.00 0.00 0.00 0.08 0.03 0.04 0.13 0.25 0.06 0.11 0.10 0.09 0.09 0.64 0.42 0.34 0.61 0.34 0.20 0.17 0.29 0.62 0.60 0.85 0.82 0.54 0.66 0.75 0.80 0.91
0.47 2.02 0.94 0.85 0.42 0.42 0.22 0.24 0.17 0.13 0.08 0.05 0.04 0.02 0.01 0.02 0.02 0.04 0.05 0.13 0.13 0.09 0.09 0.07 0.02 0.00 0.06 0.03 0.04 0.08 0.07 0.03 0.01 0.11 0.13 0.06 0.37 0.04 0.02 0.03 0.02 0.05 0.06 0.29 0.09 0.03 0.15 0.03 0.01 0.10 0.08 0.17 0.17 0.04 0.00 0.00 0.00 0.00 0.01 0.02 0.00 0.00 0.02 0.08 0.04 0.11 0.02 0.10 0.24 0.15 0.11 0.46 0.80 0.57 0.99 0.80 0.42 0.49 0.51 0.42 0.52 0.22 0.28 0.34 0.37 0.30 0.68 0.65
0.86 1.31 1.23 0.92 0.46 0.39 0.61 0.44 0.24 0.11 0.22 0.13 0.11 0.05 0.07 0.03 0.02 0.03 0.08 0.13 0.08 0.06 0.03 0.04 0.01 0.04 0.07 0.02 0.05 0.02 0.03 0.04 0.13 0.09 0.08 0.11 0.51 0.00 0.01 0.00 0.02 0.17 0.08 0.04 0.00 0.07 0.08 0.19 0.01 0.08 0.23 0.13 0.16 0.23 0.27 0.12 0.06 0.03 0.00 0.00 0.01 0.01 0.19 0.11 0.06 0.08 0.02 0.06 0.03 0.12 0.60 0.25 0.46 0.53 0.53 0.32 0.26 0.25 0.33 0.19 0.12 0.58 1.31 0.66 0.50 0.44 0.33 0.58
1.15 1.36 1.03 1.00 1.22 1.07 0.15 0.33 0.25 0.42 0.21 0.13 0.06 0.08 0.03 0.16 0.04 0.04 0.06 0.09 0.04 0.04 0.00 0.02 0.00 0.00 0.03 0.03 0.06 0.06 0.03 0.02 0.06 0.09 0.09 0.17 0.14 0.04 0.00 0.01 0.15 0.06 0.08 0.03 0.05 0.02 0.26 0.07 0.10 0.07 0.25 0.37 0.49 0.38 0.12 0.05 0.26 0.05 0.05 0.01 0.06 0.00 0.02 0.05 0.09 0.06 0.18 0.16 0.09 0.19 0.21 0.32 0.49 0.62 0.26 0.44 0.49 0.50 0.59 0.27 0.18 0.26 0.41 0.37 0.68 0.90 0.83 0.56
0.93 1.35 0.95 0.81 0.44 0.46 0.58 0.26 0.20 0.18 0.28 0.30 0.16 0.13 0.13 0.07 0.08 0.11 0.09 0.18 0.06 0.03 0.02 0.22 0.02 0.01 0.02 0.01 0.05 0.13 0.01 0.02 0.04 0.02 0.09 0.42 0.29 0.16 0.01 0.05 0.16 0.04 0.01 0.03 0.04 0.23 0.28 0.23 0.09 0.15 0.18 0.10 0.09 0.13 0.21 0.09 0.08 0.05 0.05 0.05 0.02 0.03 0.02 0.10 0.04 0.10 0.32 0.14 0.20 0.45 0.24 0.05 0.33 0.38 0.38 0.45 0.38 0.26 0.62 0.40 0.24 0.21 0.47 0.60 0.46 0.42 0.34 0.69
0.99 1.64 1.12 0.93 0.56 0.44 0.46 0.89 0.22 0.52 0.15 0.14 0.30 0.10 0.17 0.18 0.19 0.28 0.09 0.12 0.06 0.03 0.04 0.03 0.00 0.00 0.00 0.01 0.03 0.12 0.11 0.04 0.16 0.09 0.09 0.25 0.17 0.29 0.43 0.02 0.07 0.06 0.03 0.08 0.14 0.17 0.49 0.36 0.35 0.17 0.29 0.13 0.07 0.08 0.11 0.12 0.10 0.10 0.11 0.11 0.07 0.09 0.08 0.08 0.03 0.03 0.14 0.06 0.15 0.37 0.50 0.13 0.34 0.41 0.31 0.50 0.46 0.61 0.36 0.52 0.45 0.40 0.31 0.56 0.39 0.41 0.34 0.34
1.43 1.42 1.37 0.40 0.66 0.83 0.55 0.41 0.31 0.28 0.52 0.19 0.32 0.12 0.23 0.13 0.27 0.26 0.29 0.23 0.06 0.08 0.02 0.09 0.12 0.02 0.00 0.00 0.03 0.09 0.06 0.16 0.08 0.10 0.16 0.24 0.26 0.26 0.50 0.26 0.16 0.09 0.01 0.09 0.22 0.15 0.17 0.44 0.65 0.43 0.49 0.27 0.15 0.13 0.12 0.26 0.15 0.13 0.20 0.19 0.14 0.18 0.11 0.17 0.12 0.06 0.14 0.17 0.14 0.15 0.21 0.27 0.24 0.43 0.29 0.38 0.30 0.16 0.26 0.36 0.22 0.33 0.50 0.43 0.47 0.43 0.37 0.14
1.27 1.81 1.23 0.52 0.43 0.47 0.41 0.33 0.47 0.37 0.30 0.08 0.23 0.23 0.32 0.24 0.24 0.26 0.37 0.26 0.19 0.12 0.04 0.08 0.11 0.06 0.05 0.03 0.02 0.17 0.19 0.13 0.24 0.17 0.26 0.13 0.19 0.15 0.51 0.46 0.66 0.27 0.10 0.11 0.12 0.37 0.04 0.44 0.16 0.34 0.56 0.76 0.53 0.13 0.14 0.34 0.23 0.13 0.07 0.13 0.17 0.37 0.21 0.06 0.17 0.27 0.20 0.21 0.06 0.04 0.02 0.39 0.46 0.24 0.38 0.30 0.23 0.08 0.08 0.12 0.30 0.54 0.30 0.25 0.36 0.25 0.17 0.17
1.10 1.20 1.15 0.63 0.40 0.57 0.49 0.26 0.31 0.47 0.40 0.16 0.27 0.30 0.23 0.30 0.42 0.46 0.55 0.15 0.21 0.22 0.08 0.14 0.18 0.27 0.15 0.05 0.04 0.10 0.09 0.16 0.13 0.15 0.19 0.40 0.30 0.24 0.12 0.34 0.05 0.20 0.19 0.13 0.15 0.50 0.10 0.63 0.43 0.64 0.25 0.50 0.30 0.23 0.23 0.29 0.42 0.25 0.13 0.10 0.11 0.15 0.25 0.08 0.09 0.18 0.37 0.35 0.25 0.10 0.01 0.14 0.45 0.17 0.20 0.23 0.15 0.12 0.11 0.08 0.09 0.09 0.32 0.22 0.15 0.25 0.13 0.09
1.11 0.75 0.80 0.72 0.33 0.15 0.23 0.15 0.29 0.31 0.65 0.44 0.30 0.22 0.34 0.19 0.25 0.30 0.29 0.13 0.10 0.07 0.09 0.06 0.15 0.31 0.21 0.17 0.13 0.14 0.24 0.10 0.08 0.37 0.13 0.15 0.15 0.61 0.37 0.50 0.51 0.65 0.53 0.25 0.38 0.43 0.41 0.18 0.20 0.44 0.36 0.48 0.64 0.26 0.48 0.34 0.46 0.46 0.68 0.19 0.10 0.11 0.26 0.09 0.08 0.05 0.16 0.68 0.58 0.27 0.08 0.05 0.18 0.15 0.16 0.31 0.40 0.18 0.18 0.12 0.07 0.07 0.09 0.08 0.08 0.08 0.08 0.08